Home   Weather   Sheffield   Past weeks

Flag for United Kingdom Past Weather in Sheffield, England, United Kingdom — Yesterday and Last 2 Weeks

Now
55 °F

Passing clouds.


Feels Like: 52 °F
Forecast: 47 / 58 °F
Wind: 12 mph from South

Location: Manchester Airport

Current Time: Sep 25, 2016 at 10:04:04 AM

Latest Report: Sep 25, 2016 at 9:20 AM


Visibility: N/A

Pressure: 29.77 "Hg

Humidity: 94%

Dew Point: 54 °F

Location of SheffieldLocation

Past Weather in Sheffield — Graph

°F

Sheffield Temperature Yesterday

Maximum temperature yesterday: 66 °F (at 2:20 PM)
Minimum temperature yesterday: 54 °F (at 12:20 AM)
Average temperature yesterday: 61 °F

High & Low Weather Summary for the Past Weeks

 TemperatureHumidityPressure
High79 °F (Sep 14, 2:50 PM)100% (Sep 11, 6:20 AM)30.24 "Hg (Sep 11, 6:20 AM)
Low45 °F (Sep 18, 5:50 AM)52% (Sep 11, 1:50 PM)29.68 "Hg (Sep 25, 1:50 AM)
Average60 °F81%29.99 "Hg
* Reported Sep 10 8:20 AM — Sep 25 8:50 AM, Sheffield, Weather by CustomWeather, © 2016

Note: Actual official high and low records may vary slightly from our data, if they occured in-between our weather recording intervals... More about our weather records

Advertising

Sheffield Weather History for the Previous 24 Hours

Scroll right to see more
 ConditionsComfort  
Time TempWeatherWind HumidityBarometerVisibility
8:50 AM
Sun, Sep 25
55 °FScattered showers. Passing clouds.10 mph94%29.77 "HgN/A
8:20 AM55 °FScattered showers. Scattered clouds.13 mph94%29.77 "HgN/A
7:50 AM55 °FPassing clouds.8 mph94%29.74 "HgN/A
7:20 AM55 °FScattered clouds.9 mph94%29.74 "HgN/A
6:50 AM55 °FPassing clouds.9 mph94%29.74 "HgN/A
6:20 AM55 °FClear.9 mph94%29.74 "Hg10 mi
5:50 AM55 °FPassing clouds.9 mph94%29.71 "HgN/A
5:20 AM55 °FLight rain. Passing clouds.9 mph94%29.71 "HgN/A
4:50 AM55 °FPassing clouds.7 mph94%29.71 "HgN/A
4:20 AM55 °FLight rain. Clear.7 mph94%29.71 "HgN/A
3:50 AM55 °FRain. Clear.7 mph100%29.68 "Hg4 mi
3:20 AM55 °FRain. Passing clouds.6 mph94%29.68 "Hg4 mi
2:50 AM55 °FRain. Passing clouds.8 mph94%29.68 "Hg5 mi
2:20 AM59 °FHeavy rain. Partly cloudy.16 mph88%29.71 "Hg2 mi
1:50 AM61 °FRain. Partly cloudy.8 mph94%29.68 "Hg6 mi
1:20 AM61 °FRain. Partly cloudy.8 mph94%29.71 "Hg5 mi
12:50 AM61 °FRain. Partly cloudy.13 mph94%29.71 "Hg3 mi
12:20 AM64 °FLight rain. Passing clouds.18 mph78%29.71 "Hg6 mi
11:50 PM
Sat, Sep 24
64 °FPassing clouds.15 mph78%29.71 "HgN/A
11:20 PM64 °FPassing clouds.16 mph78%29.74 "HgN/A
10:50 PM64 °FPassing clouds.17 mph73%29.74 "HgN/A
10:20 PM64 °FPassing clouds.17 mph73%29.74 "HgN/A
9:50 PM64 °FPassing clouds.18 mph73%29.74 "HgN/A
9:20 PM64 °FPassing clouds.17 mph73%29.77 "HgN/A
8:50 PM64 °FPartly cloudy.18 mph73%29.77 "HgN/A
8:20 PM64 °FPassing clouds.17 mph73%29.77 "HgN/A
7:50 PM64 °FClear.16 mph73%29.77 "Hg10 mi
7:20 PM64 °FClear.15 mph73%29.77 "Hg10 mi
6:50 PM66 °FSunny.17 mph64%29.77 "Hg10 mi
6:20 PM66 °FPassing clouds.16 mph68%29.77 "HgN/A
5:50 PM66 °FSunny.17 mph68%29.77 "Hg10 mi
5:20 PM66 °FPartly sunny.13 mph68%29.80 "HgN/A
4:50 PM66 °FSunny.15 mph68%29.80 "Hg10 mi
4:20 PM66 °FBroken clouds.20 mph64%29.83 "HgN/A
3:50 PM66 °FBroken clouds.16 mph68%29.83 "HgN/A
3:20 PM66 °FBroken clouds.20 mph68%29.83 "HgN/A
2:50 PM66 °FPartly sunny.18 mph68%29.86 "HgN/A
2:20 PM66 °FPartly sunny.14 mph68%29.86 "HgN/A
1:50 PM64 °FPartly sunny.16 mph73%29.86 "HgN/A
1:20 PM64 °FScattered clouds.16 mph73%29.86 "HgN/A
12:50 PM64 °FSunny.20 mph73%29.86 "Hg10 mi
12:20 PM64 °FPassing clouds.18 mph73%29.89 "HgN/A
11:50 AM63 °FPassing clouds.21 mph77%29.89 "HgN/A
11:20 AM64 °FPassing clouds.16 mph73%29.89 "HgN/A
10:50 AM63 °FPassing clouds.14 mph77%29.92 "HgN/A
10:20 AM61 °FPassing clouds.13 mph83%29.92 "HgN/A
Weather by CustomWeather, © 2016

See weather overviewHow to use our weather pages